New York, NY

7:52 PM EDT on October 21, 2017 (GMT -0400)
La Guardia

Weather History for KLGA - April, 2014

Change the Weather History Date:

Tuesday, April 1, 2014

  Actual Average Record
Temperature  
Mean Temperature 49 °F 47 °F  
Max Temperature 59 °F 55 °F 80 °F (1978)
Min Temperature 39 °F 40 °F 27 °F (1969)
Degree Days  
Heating Degree Days 16 18  
Month to date heating degree days 16 18  
Since 1 July heating degree days 4531 4154  
Cooling Degree Days 0 0  
Month to date cooling degree days 0 0  
Year to date cooling degree days 0 0  
Moisture  
Dew Point 27 °F    
Average Humidity 45    
Maximum Humidity 58    
Minimum Humidity 32    
Precipitation  
Precipitation 0.00 in 0.14 in 1.89 in (1993)
Month to date precipitation 0.00 0.14  
Year to date precipitation 10.95 10.04  
Snow  
Snow 0.00 in 0.00 in 0.30 in (1997)
Month to date snowfall 0.0 0.0  
Since 1 July snowfall 52.1 26.4  
Snow Depth 0.00 in    
Sea Level Pressure  
Sea Level Pressure 30.07 in    
Wind  
Wind Speed 9 mph (NNW)    
Max Wind Speed 18 mph    
Max Gust Speed 23 mph    
Visibility 10 miles    
Events      
T = Trace of Precipitation, MM = Missing Value Source: NWS Daily Summary

Daily Weather History Graph

Daily Weather History Graph

Search for Another Location

Airport or City:

Trip Planner

Search our weather history database for the weather conditions in past years. The results will help you decide how hot, cold, wet, or windy it might be!

Date:

Astronomy

Apr. 01, 2014 Rise Set
Actual Time 6:39 AM EDT 7:20 PM EDT
Civil Twilight 6:11 AM EDT 7:47 PM EDT
Nautical Twilight 5:38 AM EDT 8:20 PM EDT
Astronomical Twilight 5:05 AM EDT 8:54 PM EDT
Moon 7:39 AM EDT (4/1) 9:41 PM EDT (4/1)
Length of Visible Light 13h 36m
Length of Day
12h 41m
Waxing Crescent, 4% of the Moon is Illuminated
Apr 1
Waxing Crescent
Apr 7
First Quarter
Apr 15
Full
Apr 22
Last Quarter
Apr 29
New

Hourly Weather History & Observations

Time (EDT) Temp. Windchill Dew Point Humidity Pressure Visibility Wind Dir Wind Speed Gust Speed Precip Events Conditions
12:51 AM 41.0 °F 33.5 °F 24.1 °F 51% 30.09 in 10.0 mi North 13.8 mph 20.7 mph N/A   Clear
1:51 AM 39.9 °F 33.9 °F 24.1 °F 53% 30.10 in 10.0 mi NNE 9.2 mph - N/A   Clear
2:51 AM 39.9 °F 33.4 °F 25.0 °F 55% 30.10 in 10.0 mi North 10.4 mph - N/A   Clear
3:51 AM 39.9 °F 33.9 °F 25.0 °F 55% 30.09 in 10.0 mi North 9.2 mph - N/A   Clear
4:51 AM 39.0 °F 32.3 °F 25.0 °F 57% 30.08 in 10.0 mi North 10.4 mph 17.3 mph N/A   Clear
5:51 AM 39.0 °F 31.8 °F 24.1 °F 55% 30.10 in 10.0 mi North 11.5 mph 19.6 mph N/A   Clear
6:51 AM 39.0 °F 31.8 °F 25.0 °F 57% 30.11 in 10.0 mi North 11.5 mph 21.9 mph N/A   Clear
7:51 AM 39.9 °F 31.8 °F 25.0 °F 55% 30.13 in 10.0 mi North 15.0 mph - N/A   Partly Cloudy
8:51 AM 41.0 °F 33.5 °F 25.0 °F 53% 30.13 in 10.0 mi NNW 13.8 mph - N/A   Partly Cloudy
9:51 AM 44.1 °F 37.7 °F 25.0 °F 47% 30.13 in 10.0 mi North 12.7 mph - N/A   Partly Cloudy
10:51 AM 46.0 °F 44.8 °F 27.0 °F 47% 30.12 in 10.0 mi NNW 3.5 mph - N/A   Partly Cloudy
11:51 AM 48.0 °F - 27.0 °F 44% 30.11 in 10.0 mi North 4.6 mph - N/A   Scattered Clouds
12:51 PM 51.1 °F - 26.1 °F 38% 30.08 in 10.0 mi NNW 5.8 mph - N/A   Scattered Clouds
1:51 PM 54.0 °F - 28.9 °F 38% 30.06 in 10.0 mi NW 4.6 mph - N/A   Partly Cloudy
2:51 PM 55.9 °F - 27.0 °F 33% 30.03 in 10.0 mi Calm Calm - N/A   Mostly Cloudy
3:51 PM 57.9 °F - 28.0 °F 32% 30.01 in 10.0 mi Calm Calm - N/A   Mostly Cloudy
4:51 PM 57.9 °F - 28.9 °F 33% 29.99 in 10.0 mi Calm Calm - N/A   Mostly Cloudy
5:51 PM 53.1 °F - 30.9 °F 43% 29.99 in 10.0 mi South 11.5 mph - N/A   Mostly Cloudy
5:58 PM 51.8 °F - 30.2 °F 44% 30.01 in 10.0 mi South 13.8 mph - N/A   Mostly Cloudy
6:51 PM 50.0 °F - 30.0 °F 46% 30.01 in 10.0 mi SSE 13.8 mph - N/A   Mostly Cloudy
7:51 PM 46.9 °F - 28.9 °F 50% 30.04 in 10.0 mi South 10.4 mph - N/A   Mostly Cloudy
8:51 PM 46.9 °F - 30.0 °F 52% 30.07 in 10.0 mi South 9.2 mph - N/A   Mostly Cloudy
9:51 PM 45.0 °F 40.6 °F 30.0 °F 56% 30.06 in 10.0 mi South 8.1 mph - N/A   Scattered Clouds
10:51 PM 44.1 °F 37.7 °F 28.9 °F 55% 30.08 in 10.0 mi South 12.7 mph - N/A   Partly Cloudy
11:51 PM 44.1 °F 38.6 °F 30.0 °F 58% 30.07 in 10.0 mi South 10.4 mph - N/A   Clear